Flag for Tuvalu Weather past 2 weeks in Funafuti, Tuvalu

Now
88 °F

Partly sunny.


Feels Like: 102 °F
Forecast: 81 / 87 °F
Wind: 6 mph from East

Location: Funafuti

Current Time: Aug 1, 2015 at 9:25:17 AM

Latest Report: Aug 1, 2015 at 9:00 AM


Visibility: N/A

Pressure: 29.80 "Hg

Humidity: 75%

Dew point: 79 °F

Location of FunafutiLocation

Historic Weather in Funafuti — Graph

°F

Funafuti temperature yesterday

Maximum temperature yesterday: 84 °F (at 12:00 PM)
Minimum temperature yesterday: 77 °F (at 3:00 AM)
Average temperature yesterday: 81 °F

Past Weeks' High & Low Weather Summary

 TemperatureHumidityPressure
High88 °F (Jul 17, 12:00 PM)94% (Jul 18, 5:00 AM)29.92 "Hg (Jul 18, 5:00 AM)
Low77 °F (Jul 21, 1:00 AM)66% (Jul 20, 1:00 PM)29.65 "Hg (Jul 25, 6:00 AM)
Average82 °F85%29.82 "Hg
* Reported Jul 17 8:00 AM — Aug 1 8:00 AM, Funafuti, Weather by CustomWeather, © 2015

Note: Actual official high and low records may vary slightly from our data, if they occured in-between our weather recording intervals... More about our weather records

Advertising

Funafuti weather history for previous 24 hours

 ConditionsComfort  
Time TempWeatherWind HumidityBarometerVisibility
8:00 AM
Sat, Aug 1
84 °FPassing clouds.3 mph79%29.77 "HgN/A
7:00 AM82 °FPassing clouds.3 mph84%29.74 "HgN/A
6:00 AM82 °FPassing clouds.3 mph84%29.71 "HgN/A
5:00 AM82 °FPassing clouds.3 mph84%29.71 "HgN/A
4:00 AM81 °FPassing clouds.3 mph89%29.71 "HgN/A
2:00 AM82 °FPassing clouds.7 mph84%29.74 "HgN/A
1:00 AM82 °FScattered showers. Passing clouds.7 mph84%29.74 "HgN/A
12:00 AM82 °FMostly cloudy.8 mph84%29.77 "HgN/A
11:00 PM
Fri, Jul 31
82 °FPartly cloudy.9 mph84%29.77 "HgN/A
10:00 PM82 °FMostly cloudy.6 mph84%29.77 "HgN/A
9:00 PM82 °FMostly cloudy.7 mph89%29.74 "HgN/A
8:00 PM82 °FPartly cloudy.3 mph84%29.74 "HgN/A
7:00 PM82 °FScattered showers. Mostly cloudy.3 mph89%29.71 "HgN/A
6:00 PM82 °FMore clouds than sun.6 mph84%29.68 "HgN/A
5:00 PM82 °FMore clouds than sun.12 mph89%29.68 "HgN/A
4:00 PM82 °FScattered showers. More clouds than sun.10 mph89%29.68 "HgN/A
3:00 PM82 °FScattered showers. More clouds than sun.9 mph89%29.71 "HgN/A
2:00 PM82 °FScattered showers. More clouds than sun.7 mph84%29.74 "HgN/A
1:00 PM82 °FSprinkles. More clouds than sun.3 mph89%29.77 "HgN/A
12:00 PM84 °FScattered showers. Cloudy.3 mph84%29.77 "HgN/A
11:00 AM81 °FScattered showers. More clouds than sun.2 mph94%29.80 "HgN/A
10:00 AM81 °FScattered showers. More clouds than sun.2 mph89%29.80 "HgN/A
9:00 AM79 °FSprinkles. More clouds than sun.3 mph94%29.80 "HgN/A
Weather by CustomWeather, © 2015

See weather overviewHow to use our weather pages